When you browse on this site, cookies collect data to enhance your experience and personalize the content and advertising you see.
Visit our Privacy Policy to learn more. By continuing to use the site, you agree to this use of cookies and data.
  • In United Kingdom
  • List of Countries
  • For 7 days
  • Water Temperature
  • Satellite Maps
  • Weather Map
  • Weather Widgets
  • user-avatar
    Login

    Hourly Weather Les Clayes-sous-Bois

    Today, 24 April, Wednesday

    Time Temperature Precipitation Wind Pressure Humidity
    00:00 +14°C° 0.1 mm 2 mps 733 mmHg 80%
    01:00 +14°C° 0.3 mm 2 mps 733 mmHg 82%
    02:00 +13°C° 0.3 mm 3 mps 732 mmHg 85%
    03:00 +12°C° 0.3 mm 4 mps 732 mmHg 87%
    04:00 +12°C° 0 mm 4 mps 733 mmHg 85%
    05:00 +13°C° 0 mm 5 mps 733 mmHg 83%
    06:00 +13°C° 0 mm 6 mps 733 mmHg 80%
    07:00 +13°C° 0 mm 5 mps 733 mmHg 78%
    08:00 +13°C° 0 mm 5 mps 734 mmHg 76%
    09:00 +13°C° 0 mm 5 mps 734 mmHg 74%
    10:00 +14°C° 0 mm 5 mps 734 mmHg 71%
    11:00 +14°C° 0 mm 5 mps 735 mmHg 67%
    12:00 +14°C° 0 mm 5 mps 735 mmHg 64%
    13:00 +14°C° 0.2 mm 5 mps 735 mmHg 64%
    14:00 +14°C° 0.2 mm 6 mps 735 mmHg 65%
    15:00 +14°C° 0.2 mm 6 mps 736 mmHg 66%
    16:00 +14°C° 0.2 mm 6 mps 736 mmHg 66%
    17:00 +13°C° 0.2 mm 5 mps 736 mmHg 67%
    18:00 +13°C° 0.2 mm 5 mps 735 mmHg 68%
    19:00 +12°C° 0 mm 4 mps 736 mmHg 68%
    20:00 +12°C° 0 mm 3 mps 736 mmHg 69%
    21:00 +11°C° 0 mm 3 mps 736 mmHg 69%
    22:00 +11°C° 0 mm 3 mps 736 mmHg 69%
    23:00 +11°C° 0 mm 4 mps 736 mmHg 69%

    Tomorrow, 25 April, Thursday

    Time Temperature Precipitation Wind Pressure Humidity
    00:00 +12°C° 0 mm 4 mps 736 mmHg 69%
    01:00 +10°C° 0.5 mm 5 mps 736 mmHg 72%
    02:00 +10°C° 0.5 mm 6 mps 736 mmHg 76%
    03:00 +10°C° 0.5 mm 7 mps 736 mmHg 80%
    04:00 +10°C° 1.3 mm 6 mps 736 mmHg 82%
    05:00 +9°C° 1.3 mm 6 mps 736 mmHg 84%
    06:00 +9°C° 1.3 mm 5 mps 736 mmHg 86%
    07:00 +9°C° 0 mm 5 mps 737 mmHg 83%
    08:00 +10°C° 0 mm 5 mps 738 mmHg 80%
    09:00 +10°C° 0 mm 5 mps 739 mmHg 77%
    10:00 +10°C° 0.3 mm 5 mps 739 mmHg 75%
    11:00 +10°C° 0.3 mm 6 mps 739 mmHg 73%
    12:00 +11°C° 0.3 mm 6 mps 740 mmHg 72%
    13:00 +11°C° 0.1 mm 6 mps 740 mmHg 69%
    14:00 +11°C° 0.1 mm 6 mps 741 mmHg 66%
    15:00 +13°C° 0.1 mm 6 mps 741 mmHg 63%
    16:00 +11°C° 0 mm 6 mps 741 mmHg 64%
    17:00 +11°C° 0 mm 6 mps 742 mmHg 64%
    18:00 +10°C° 0 mm 6 mps 742 mmHg 65%
    19:00 +10°C° 0 mm 5 mps 742 mmHg 68%
    20:00 +9°C° 0 mm 5 mps 743 mmHg 71%
    21:00 +8°C° 0 mm 5 mps 743 mmHg 74%
    22:00 +8°C° 0 mm 4 mps 744 mmHg 76%
    23:00 +7°C° 0 mm 4 mps 744 mmHg 78%

    Day after tomorrow, 26 April, Friday

    Time Temperature Precipitation Wind Pressure Humidity
    00:00 +6°C° 0 mm 4 mps 744 mmHg 81%
    01:00 +6°C° 0 mm 4 mps 744 mmHg 82%
    02:00 +6°C° 0 mm 4 mps 745 mmHg 82%
    03:00 +6°C° 0 mm 5 mps 745 mmHg 83%
    04:00 +6°C° 0 mm 5 mps 745 mmHg 80%
    05:00 +7°C° 0 mm 5 mps 745 mmHg 76%
    06:00 +8°C° 0 mm 5 mps 746 mmHg 72%
    07:00 +9°C° 0 mm 6 mps 746 mmHg 69%
    08:00 +10°C° 0 mm 6 mps 746 mmHg 67%
    09:00 +13°C° 0 mm 6 mps 746 mmHg 64%
    10:00 +13°C° 0.2 mm 6 mps 746 mmHg 62%
    11:00 +14°C° 0.2 mm 6 mps 746 mmHg 60%
    12:00 +15°C° 0.2 mm 5 mps 747 mmHg 58%
    13:00 +15°C° 0.5 mm 6 mps 747 mmHg 59%
    14:00 +15°C° 0.5 mm 6 mps 747 mmHg 61%
    15:00 +15°C° 0.5 mm 6 mps 747 mmHg 63%
    16:00 +14°C° 0.2 mm 5 mps 748 mmHg 66%
    17:00 +13°C° 0.2 mm 5 mps 748 mmHg 69%
    18:00 +12°C° 0.2 mm 4 mps 748 mmHg 73%
    19:00 +11°C° 0.1 mm 4 mps 749 mmHg 75%
    20:00 +10°C° 0.1 mm 4 mps 749 mmHg 78%
    21:00 +8°C° 0.1 mm 4 mps 750 mmHg 81%
    22:00 +8°C° 0 mm 5 mps 749 mmHg 80%
    23:00 +7°C° 0 mm 5 mps 749 mmHg 80%

    27 April, Saturday

    Time Temperature Precipitation Wind Pressure Humidity
    00:00 +7°C° 0 mm 6 mps 749 mmHg 79%
    01:00 +6°C° 0.2 mm 7 mps 748 mmHg 81%
    02:00 +6°C° 0.2 mm 7 mps 747 mmHg 82%
    03:00 +7°C° 0.2 mm 8 mps 746 mmHg 84%
    04:00 +6°C° 0.2 mm 8 mps 746 mmHg 82%
    05:00 +6°C° 0.2 mm 8 mps 746 mmHg 80%
    06:00 +6°C° 0.2 mm 8 mps 745 mmHg 78%
    07:00 +6°C° 0.5 mm 9 mps 746 mmHg 78%
    08:00 +6°C° 0.5 mm 9 mps 746 mmHg 78%
    09:00 +7°C° 0.5 mm 10 mps 746 mmHg 79%
    10:00 +7°C° 0.9 mm 9 mps 746 mmHg 79%
    11:00 +7°C° 0.9 mm 9 mps 747 mmHg 80%
    12:00 +7°C° 0.9 mm 9 mps 747 mmHg 81%
    13:00 +8°C° 0.4 mm 9 mps 747 mmHg 79%
    14:00 +8°C° 0.4 mm 9 mps 748 mmHg 76%
    15:00 +8°C° 0.4 mm 9 mps 748 mmHg 74%
    16:00 +8°C° 0.1 mm 9 mps 749 mmHg 76%
    17:00 +8°C° 0.1 mm 9 mps 750 mmHg 78%
    18:00 +9°C° 0.1 mm 8 mps 751 mmHg 80%
    19:00 +7°C° 0.4 mm 8 mps 751 mmHg 81%
    20:00 +7°C° 0.4 mm 8 mps 752 mmHg 82%
    21:00 +8°C° 0.4 mm 7 mps 753 mmHg 83%
    22:00 +8°C° 0.1 mm 7 mps 753 mmHg 83%
    23:00 +8°C° 0.1 mm 6 mps 754 mmHg 83%

    28 April, Sunday

    Time Temperature Precipitation Wind Pressure Humidity
    00:00 +7°C° 0.1 mm 5 mps 754 mmHg 83%
    01:00 +7°C° 0 mm 5 mps 754 mmHg 84%
    02:00 +6°C° 0 mm 4 mps 755 mmHg 85%
    03:00 +6°C° 0 mm 4 mps 755 mmHg 86%
    04:00 +6°C° 0 mm 4 mps 755 mmHg 84%
    05:00 +6°C° 0 mm 4 mps 755 mmHg 83%
    06:00 +6°C° 0 mm 4 mps 755 mmHg 82%
    07:00 +7°C° 0 mm 4 mps 755 mmHg 76%
    08:00 +10°C° 0 mm 3 mps 756 mmHg 71%
    09:00 +11°C° 0 mm 3 mps 756 mmHg 66%
    10:00 +12°C° 0 mm 3 mps 755 mmHg 63%
    11:00 +13°C° 0 mm 3 mps 755 mmHg 60%
    12:00 +13°C° 0 mm 3 mps 755 mmHg 57%
    13:00 +14°C° 0 mm 3 mps 755 mmHg 56%
    14:00 +14°C° 0 mm 3 mps 754 mmHg 55%
    15:00 +14°C° 0 mm 3 mps 754 mmHg 54%
    16:00 +13°C° 0 mm 3 mps 754 mmHg 57%
    17:00 +13°C° 0 mm 3 mps 754 mmHg 60%
    18:00 +12°C° 0 mm 3 mps 754 mmHg 63%
    19:00 +11°C° 0 mm 3 mps 754 mmHg 67%
    20:00 +9°C° 0 mm 2 mps 754 mmHg 71%
    21:00 +8°C° 0 mm 2 mps 754 mmHg 75%
    22:00 +7°C° 0 mm 2 mps 754 mmHg 77%
    23:00 +7°C° 0 mm 2 mps 754 mmHg 79%

    29 April, Monday

    Time Temperature Precipitation Wind Pressure Humidity
    00:00 +7°C° 0 mm 1 mps 754 mmHg 81%
    01:00 +7°C° 0 mm 1 mps 754 mmHg 82%
    02:00 +7°C° 0 mm 1 mps 753 mmHg 83%
    03:00 +7°C° 0 mm 1 mps 753 mmHg 85%
    04:00 +7°C° 0 mm 1 mps 753 mmHg 84%
    05:00 +7°C° 0 mm 1 mps 753 mmHg 82%
    06:00 +8°C° 0 mm 1 mps 753 mmHg 81%
    07:00 +10°C° 0 mm 1 mps 753 mmHg 75%
    08:00 +11°C° 0 mm 1 mps 753 mmHg 68%
    09:00 +13°C° 0 mm 1 mps 752 mmHg 61%
    10:00 +15°C° 0 mm 1 mps 752 mmHg 55%
    11:00 +16°C° 0 mm 1 mps 752 mmHg 48%
    12:00 +18°C° 0 mm 1 mps 751 mmHg 42%
    13:00 +18°C° 0 mm 1 mps 751 mmHg 41%
    14:00 +19°C° 0 mm 1 mps 750 mmHg 39%
    15:00 +18°C° 0 mm 2 mps 750 mmHg 38%
    16:00 +17°C° 0 mm 2 mps 749 mmHg 43%
    17:00 +17°C° 0 mm 2 mps 749 mmHg 48%
    18:00 +16°C° 0 mm 2 mps 749 mmHg 53%
    19:00 +15°C° 0 mm 2 mps 749 mmHg 58%
    20:00 +14°C° 0 mm 2 mps 749 mmHg 62%
    21:00 +11°C° 0 mm 3 mps 749 mmHg 67%
    22:00 +11°C° 0 mm 3 mps 748 mmHg 69%
    23:00 +10°C° 0 mm 2 mps 748 mmHg 72%
    Show more